Location: Bottom School (historical)
(37.9078°N, 89.3593°W)
Time: 19:51:27
(UTC+00:00)

STRAND 1 - Pass Details

Date: 06 April 2023
Orbit: 767 x 779 km, 98.4° (Epoch: 30 May)

Event Time Altitude Azimuth Distance (km) Brightness Sun altitude
Rises 02:18:50 0° 350° (N) 3,244 ? -22.3°
Reaches altitude 10° 02:22:37 10° 321° (NW) 2,312 ? -22.9°
Maximum altitude 02:24:32 12° 299° (WNW) 2,161 ? -23.2°
Drops below altitude 10° 02:26:27 10° 276° (W) 2,307 ? -23.6°
Sets 02:30:14 0° 247° (WSW) 3,229 ? -24.2°
